ZHONGXING-26

Last updated on Thu Nov 21 2024 00:02:45 GMT+0000 (Coordinated Universal Time)

1 55686U 23023A 24324.74837778 -.00000352 00000+0 00000+0 0 9995 2 55686 0.0728 82.6111 0000404 234.1952 137.0331 1.00270701 6475
UTC large
Height (km)
Speed (km/s)
/
Latitude / Longitude
Inclination (degrees)
Orbital Period (minutes)
Azimuth
Elevation
Range (km)
Doppler Factor

Next 0 passes for location: London (51.5072 / 0.1276)

Sorry there are no passes over London.